Weather History for St. Joseph, MO

Change the Weather History Date:

Sunday, January 6, 2013

  Actual Average Record
Temperature  
Mean Temperature 28 °F 26 °F  
Max Temperature 37 °F 36 °F 63 °F (1939)
Min Temperature 19 °F 17 °F -20 °F (1971)
Degree Days  
Heating Degree Days 37 38  
Month to date heating degree days 256 231  
Since 1 July heating degree days 2352 2444  
Cooling Degree Days 0 0  
Month to date cooling degree days 0 0  
Year to date cooling degree days 0 0  
Moisture  
Dew Point 19 °F    
Average Humidity 68    
Maximum Humidity 84    
Minimum Humidity 52    
Precipitation  
Precipitation 0.00 in 0.02 in 0.36 in (2010)
Month to date precipitation T 0.12  
Year to date precipitation T 0.12  
Sea Level Pressure  
Sea Level Pressure 30.33 in    
Wind  
Wind Speed 8 mph (WSW)    
Max Wind Speed 23 mph    
Max Gust Speed 30 mph    
Visibility 10 miles    
Events      
T = Trace of Precipitation, MM = Missing Value Source: NWS Daily Summary

Daily Weather History Graph

Daily Weather History Graph

Search for Another Location

Airport:

Trip Planner

Search our weather history database for the weather conditions in past years. The results will help you decide how hot, cold, wet, or windy it might be!

Date:

Astronomy

Jan. 06, 2013 Rise Set
Actual Time 7:40 AM CST 5:10 PM CST
Civil Twilight 7:10 AM CST 5:40 PM CST
Nautical Twilight 6:37 AM CST 6:14 PM CST
Astronomical Twilight 6:04 AM CST 6:46 PM CST
Moon 1:56 AM CST (1/6) 12:38 PM CST (1/6)
Length of Visible Light 10h 29m
Length of Day
9h 29m
Waning Crescent, 33% of the Moon is Illuminated
Jan 6
Waning Crescent
Jan 11
New
Jan 18
First Quarter
Jan 26
Full
Feb 3
Last Quarter

Hourly Weather History & Observations

Time (CST) Temp. Windchill Dew Point Humidity Pressure Visibility Wind Dir Wind Speed Gust Speed Precip Events Conditions
12:53 AM 27.0 °F 15.2 °F 19.0 °F 72% 30.22 in 10.0 mi NW 15.0 mph - N/A   Mostly Cloudy
1:53 AM 26.1 °F 15.0 °F 19.0 °F 75% 30.24 in 10.0 mi NW 12.7 mph - N/A   Overcast
2:53 AM 24.1 °F 11.0 °F 17.1 °F 75% 30.26 in 9.0 mi NW 16.1 mph - N/A   Partly Cloudy
3:36 AM 21.2 °F 6.4 °F 15.8 °F 80% 30.27 in 10.0 mi NNW 18.4 mph - N/A   Mostly Cloudy
3:53 AM 21.9 °F 6.5 °F 16.0 °F 78% 30.30 in 10.0 mi NNW 20.7 mph 26.5 mph N/A   Overcast
4:53 AM 23.0 °F 8.7 °F 17.1 °F 78% 30.31 in 10.0 mi NNW 18.4 mph - N/A   Overcast
5:53 AM 23.0 °F 12.4 °F 17.1 °F 78% 30.32 in 10.0 mi NNW 10.4 mph - N/A   Overcast
6:33 AM 21.2 °F 14.9 °F 15.8 °F 80% 30.31 in 10.0 mi WNW 4.6 mph - N/A   Scattered Clouds
6:53 AM 19.9 °F 13.4 °F 15.1 °F 81% 30.35 in 10.0 mi West 4.6 mph - N/A   Clear
7:53 AM 19.0 °F 12.3 °F 15.1 °F 85% 30.37 in 9.0 mi WSW 4.6 mph - N/A   Clear
8:53 AM 21.9 °F 15.7 °F 17.1 °F 82% 30.39 in 10.0 mi West 4.6 mph - N/A   Clear
9:53 AM 25.0 °F 16.3 °F 18.0 °F 75% 30.40 in 10.0 mi West 8.1 mph - N/A   Clear
10:53 AM 28.0 °F 22.8 °F 19.0 °F 69% 30.42 in 10.0 mi WNW 4.6 mph - N/A   Clear
11:53 AM 30.0 °F 23.2 °F 19.9 °F 66% 30.39 in 10.0 mi WSW 6.9 mph - N/A   Clear
12:53 PM 32.0 °F 26.4 °F 21.0 °F 64% 30.37 in 10.0 mi SW 5.8 mph - N/A   Clear
1:53 PM 35.1 °F 32.2 °F 19.9 °F 54% 30.35 in 10.0 mi SW 3.5 mph - N/A   Clear
3:53 PM 36.0 °F 30.3 °F 21.9 °F 57% 30.34 in 10.0 mi SSW 6.9 mph - N/A   Clear
4:53 PM 35.1 °F 30.1 °F 21.9 °F 59% 30.34 in 10.0 mi South 5.8 mph - N/A   Clear
5:53 PM 30.9 °F 27.5 °F 21.0 °F 67% 30.34 in 10.0 mi SSE 3.5 mph - N/A   Clear
6:53 PM 28.0 °F 21.7 °F 21.9 °F 78% 30.35 in 10.0 mi SSE 5.8 mph - N/A   Clear
7:53 PM 26.1 °F 18.4 °F 19.0 °F 75% 30.34 in 10.0 mi South 6.9 mph - N/A   Clear
9:53 PM 27.0 °F 20.5 °F 19.0 °F 72% 30.30 in 10.0 mi South 5.8 mph - N/A   Clear
10:53 PM 26.1 °F 20.5 °F 19.0 °F 75% 30.29 in 10.0 mi South 4.6 mph - N/A   Clear
11:53 PM 28.9 °F 21.9 °F 19.0 °F 67% 30.28 in 10.0 mi South 6.9 mph - N/A   Clear